Location: Brno
(49.2000°N, 16.6330°E)
Time: 21:26:44
(UTC+02:00)

Explorer 11/Cluster Stage 4 - Pass Details

Date: 02 August 2021
Orbit: 467 x 1257 km, 28.8° (Epoch: 17 September)

Event Time Altitude Azimuth Distance (km) Brightness Sun altitude
Rises 09:54:56 0° 219° (SW) 4,086 10.1 41.3°
Reaches altitude 10° 09:59:24 10° 197° (SSW) 3,197 9.9 42.0°
Maximum altitude 10:03:18 14° 168° (SSE) 2,902 10.1 42.6°
Drops below altitude 10° 10:07:14 10° 139° (SE) 3,215 10.7 43.2°
Sets 10:11:44 0° 117° (ESE) 4,127 11.1 43.8°
